Weather History for KEQY - July, 2013

Change the Weather History Date:

Saturday, July 20, 2013

  Actual Average (KCLT) Record (KCLT)
Temperature  
Mean Temperature 80 °F 79 °F  
Max Temperature 87 °F 89 °F 101 °F (1986)
Min Temperature 73 °F 68 °F 60 °F (1910)
Degree Days  
Heating Degree Days 0 0  
Month to date heating degree days 0  
Since 1 June heating degree days 3  
Since 1 July heating degree days 0  
Cooling Degree Days 14 14  
Month to date cooling degree days 273  
Year to date cooling degree days 747  
Since 1 June cooling degree days 584  
Growing Degree Days 30 (Base 50)    
Moisture  
Dew Point 72 °F    
Average Humidity 82    
Maximum Humidity 96    
Minimum Humidity 65    
Precipitation  
Precipitation 0.00 in 0.12 in 1.25 in (1919)
Month to date precipitation 2.25  
Year to date precipitation 22.95  
Snow  
Snow 0.00 in 0.00 in 0.00 in ()
Month to date snowfall 0.0  
Since 1 June snowfall 0.0  
Since 1 July snowfall 0.0  
Snow Depth -    
Sea Level Pressure  
Sea Level Pressure 30.02 in    
Wind  
Wind Speed 7 mph (SW)    
Max Wind Speed 12 mph    
Max Gust Speed 16 mph    
Visibility 10 miles    
Events Rain , Thunderstorm    
T = Trace of Precipitation, MM = Missing Value Source: NWS Daily Summary

Daily Weather History Graph

Daily Weather History Graph

Search for Another Location

Airport or City:

Trip Planner

Search our weather history database for the weather conditions in past years. The results will help you decide how hot, cold, wet, or windy it might be!

Date:

Astronomy

Jul. 20, 2013 Rise Set
Actual Time 6:23 AM EDT 8:34 PM EDT
Civil Twilight 5:54 AM EDT 9:02 PM EDT
Nautical Twilight 5:19 AM EDT 9:37 PM EDT
Astronomical Twilight 4:41 AM EDT 10:15 PM EDT
Moon 6:36 PM EDT (7/20) 4:01 AM EDT (7/20)
Length of Visible Light 15h 07m
Length of Day
14h 10m
Waxing Gibbous, 93% of the Moon is Illuminated
Jul 20
Waxing Gibbous
Jul 22
Full
Jul 29
Last Quarter
Aug 6
New
Aug 14
First Quarter

Hourly Weather History & Observations

Time (EDT) Temp. Heat Index Dew Point Humidity Pressure Visibility Wind Dir Wind Speed Gust Speed Precip Events Conditions
12:53 AM 75.9 °F - 72.0 °F 87% 30.06 in 10.0 mi SSW 5.8 mph - N/A   Clear
1:53 AM 75.0 °F - 72.0 °F 90% 30.04 in 10.0 mi SSW 8.1 mph - N/A   Clear
2:53 AM 73.9 °F - 72.0 °F 93% 30.02 in 10.0 mi SW 8.1 mph - N/A   Partly Cloudy
3:16 AM 73.4 °F - 71.6 °F 94% 30.03 in 10.0 mi SSW 6.9 mph - N/A   Mostly Cloudy
3:53 AM 75.0 °F - 72.0 °F 90% 30.03 in 10.0 mi SSW 6.9 mph - N/A   Overcast
4:53 AM 75.0 °F - 72.0 °F 90% 30.03 in 10.0 mi SW 9.2 mph - N/A   Overcast
5:03 AM 75.2 °F - 71.6 °F 89% 30.04 in 10.0 mi SSW 9.2 mph - N/A   Overcast
5:43 AM 73.4 °F - 71.6 °F 94% 30.04 in 10.0 mi SSW 8.1 mph - N/A   Scattered Clouds
5:53 AM 73.9 °F - 72.0 °F 93% 30.03 in 10.0 mi SW 5.8 mph - N/A   Partly Cloudy
6:39 AM 73.4 °F - 71.6 °F 94% 30.03 in 10.0 mi SW 5.8 mph - N/A   Mostly Cloudy
6:53 AM 73.0 °F - 72.0 °F 96% 30.03 in 10.0 mi SW 5.8 mph - N/A   Mostly Cloudy
7:53 AM 75.0 °F - 72.0 °F 90% 30.05 in 10.0 mi SW 6.9 mph - N/A   Overcast
8:41 AM 75.2 °F - 71.6 °F 89% 30.06 in 10.0 mi SSW 6.9 mph - N/A   Overcast
8:53 AM 75.9 °F - 72.0 °F 87% 30.06 in 10.0 mi SSW 5.8 mph - N/A   Overcast
9:53 AM 78.1 °F - 72.0 °F 81% 30.06 in 10.0 mi SSW 9.2 mph - N/A   Overcast
10:11 AM 78.8 °F - 73.4 °F 83% 30.07 in 10.0 mi SW 9.2 mph - N/A   Overcast
10:53 AM 80.1 °F 84.2 °F 73.0 °F 79% 30.06 in 10.0 mi SSW 4.6 mph - N/A   Overcast
11:53 AM 81.0 °F 85.8 °F 73.0 °F 77% 30.06 in 10.0 mi SW 10.4 mph - N/A   Overcast
12:53 PM 82.0 °F 87.4 °F 73.0 °F 74% 30.03 in 10.0 mi SW 6.9 mph - N/A   Mostly Cloudy
1:53 PM 82.9 °F 88.8 °F 73.0 °F 72% 30.01 in 10.0 mi South 3.5 mph - N/A   Overcast
2:13 PM 84.2 °F 90.9 °F 73.4 °F 70% 30.01 in 10.0 mi SSW 8.1 mph - N/A   Mostly Cloudy
2:53 PM 84.9 °F 91.4 °F 73.0 °F 67% 29.98 in 10.0 mi SW 9.2 mph - N/A   Partly Cloudy
3:53 PM 86.0 °F 93.0 °F 73.0 °F 65% 29.98 in 10.0 mi SW 11.5 mph - N/A   Partly Cloudy
4:53 PM 84.0 °F 89.6 °F 72.0 °F 67% 29.96 in 10.0 mi SSW 10.4 mph 16.1 mph N/A   Mostly Cloudy
5:53 PM 84.9 °F 91.4 °F 73.0 °F 67% 29.96 in 10.0 mi WSW 6.9 mph - N/A   Clear
6:53 PM 82.9 °F 88.0 °F 72.0 °F 69% 29.94 in 10.0 mi SSW 4.6 mph - N/A   Clear
7:53 PM 80.1 °F 83.8 °F 72.0 °F 76% 29.97 in 10.0 mi Calm Calm - N/A   Clear
8:53 PM 79.0 °F - 72.0 °F 79% 29.98 in 10.0 mi Calm Calm - N/A   Partly Cloudy
9:03 PM 78.8 °F - 71.6 °F 78% 29.99 in 10.0 mi Calm Calm - N/A Thunderstorm Scattered Clouds
9:33 PM 80.6 °F 84.6 °F 71.6 °F 74% 30.01 in 10.0 mi West 5.8 mph - N/A   Overcast
9:53 PM 79.0 °F - 72.0 °F 79% 30.00 in 10.0 mi NW 3.5 mph - N/A   Mostly Cloudy
10:04 PM 78.8 °F - 71.6 °F 78% 30.01 in 10.0 mi WNW 4.6 mph - N/A Thunderstorm Thunderstorm
10:33 PM 75.2 °F - 71.6 °F 89% 30.02 in 10.0 mi WSW 10.4 mph - N/A   Mostly Cloudy
10:53 PM 75.0 °F - 72.0 °F 90% 30.02 in 10.0 mi WSW 8.1 mph - 0.00 in Rain Light Rain
11:53 PM 73.9 °F - 72.0 °F 93% 30.02 in 10.0 mi SW 4.6 mph - 0.00 in   Partly Cloudy